Regional Weather Roundup
Issued by NWS Albany, NY

Home | Current Version | Previous Version | Text Only | Print | Product List | Glossary On
Versions: 1 2 3 4 5 6 7 8 9 10 11 12 13 14 15 16 17 18 19 20 21 22 23 24 25 26 27 28 29 30 31 32 33 34 35 36 37 38 39 40 41 42 43 44 45 46 47
000
ASUS41 KALY 070510
RWRALY

NEW YORK STATE HOURLY WEATHER ROUNDUP
NATIONAL WEATHER SERVICE ALBANY NY
1200 AM EST SUN MAR 07 2021

NOTE: "FAIR" INDICATES FEW OR NO CLOUDS BELOW 12,000 FEET WITH NO
SIGNIFICANT WEATHER AND/OR NO OBSTRUCTIONS TO VISIBILITY.

NYZ032-033-038>043-046>054-057>066-NYZ062>081-082-084-070600-
EAST


CITY           SKY/WX    TMP DP  RH WIND       PRES   REMARKS
ALBANY         CLOUDY    20  10  65 NW7       30.20S WCI  11
GLENS FALLS    CLOUDY    20   6  55 CALM      30.18F
POUGHKEEPSIE   CLOUDY    27  12  53 N12       30.19R WCI  17
MONTGOMERY     CLOUDY    26  13  57 W7        30.17R WCI  18
WHITE PLAINS   MOCLDY    27  10  49 W9        30.17S WCI  18
ISLIP          MOCLDY    25  12  58 W5        30.20S WCI  19
NEW YORK CITY  CLOUDY    31   9  39 NW8       30.22R WCI  23
CENTRAL PARK   CLOUDY    30   8  39 VRB5      30.23S WCI  25
$$

NYZ005>009-017-018-044>046-055-056-070600-
CENTRAL


CITY           SKY/WX    TMP DP  RH WIND       PRES   REMARKS
FULTON         CLOUDY    25  11  55 N7        30.21S WCI  17
SYRACUSE       CLOUDY    23  16  74 W6        30.21S WCI  16
ROME           CLOUDY    20  16  84 CALM      30.21R
ELMIRA         CLOUDY    26  10  50 NW3       30.20R
BINGHAMTON     CLOUDY    19  11  70 NW6       30.12S WCI  11
MONTICELLO     FLURRIES  21  13  71 W10       30.12R WCI  10
$$

NYZ026>034-041>043-087-070600-
NORTH


CITY           SKY/WX    TMP DP  RH WIND       PRES   REMARKS
WATERTOWN      PTCLDY    13   7  77 CALM      30.23R
FORT DRUM      NOT AVBL
OGDENSBURG     FAIR      12   1  62 W5        30.20S WCI   4
MASSENA        CLOUDY    10   0  63 SW5       30.22S WCI   2
SARANAC LAKE   PTCLDY     2  -1  88 CALM      30.07R
PLATTSBURGH    PTCLDY    15   5  64 VRB3      30.18S
$$

NYZ001>004-010>016-019>021-085-070600-
WEST


CITY           SKY/WX    TMP DP  RH WIND       PRES   REMARKS
NIAGARA FALLS  CLOUDY    19  13  77 W7        30.24S WCI  10
BUFFALO        PTCLDY    23  13  65 W7        30.24S WCI  15
DUNKIRK        CLEAR     25  14  63 NW6       30.26F WCI  18
JAMESTOWN      CLEAR    N/A N/A N/A MISG      30.19F
WELLSVILLE     CLOUDY    20  12  71 NW9       30.15R WCI   9
ROCHESTER      PTCLDY    23  12  62 W5        30.23S WCI  17
PENN YAN       CLOUDY    24  12  60 W5        30.20S WCI  18
$$

             KEY
       WCI = WIND CHILL INDEX
       VSB = VISIBILITY
       HX  = HEAT INDEX
$$



USA.gov is the U.S. government's official web portal to all federal, state and local government web resources and services.